Location: Powder Track
(41.8531°N, 72.3584°W)
Time: 23:08:25
(UTC+00:00)

X-37B - Pass Details

Date: 29 June 2021
Orbit: 383 x 392 km, 45.0° (Epoch: 01 July)

Event Time Altitude Azimuth Distance (km) Brightness Sun altitude
Rises 02:38:43 0° 285° (WNW) 2,257 5.2 -17.9°
Reaches altitude 10° 02:40:49 10° 291° (WNW) 1,403 4.2 -18.1°
Maximum altitude 02:43:53 48° 7° (N) 511 1.4 -18.4°
Enters shadow 02:45:09 29° 66° (ENE) 741 1.9 -18.5°
